{"data":{"norad_id":64114,"intl_designator":"2025-110U","name":"STARLINK-34064","alt_names":[],"object_type":"PAYLOAD","status":"ACTIVE","operator":null,"country":"US","launch_date":"2025-05-23","launch_site_code":"AFWTR","launch_vehicle":null,"mission":null,"orbit_class":"UNKNOWN","rcs_meters":null,"size_class":null,"mass_kg":null,"dimensions":null,"purposes":["comms"],"wikipedia_slug":null,"has_3d_model":false,"image_url":null,"decayed_at":null,"tle_current":{"epoch":"2026-05-24T23:35:08.467296Z","epoch_age_seconds":73778,"freshness":"FRESH","line1":"1 64114U 25110U   26144.98273689 -.00021648  00000+0 -68878-3 0  9996","line2":"2 64114  53.1588  32.3638 0001294  80.3811 279.7337 15.31656847 57567","mean_motion":15.31656847,"eccentricity":0.0001294,"inclination_deg":53.1588,"raan_deg":32.3638,"arg_perigee_deg":80.3811,"mean_anomaly_deg":279.7337,"bstar":-0.00068878,"rev_number":5756,"period_min":94.015836694784,"perigee_km":469.98237376414,"apogee_km":471.75489642251,"semimajor_km":6849.0056350933,"source":"CELESTRAK","updated_at":"2026-05-25T13:38:20.267876Z"}}}